• In Hungary
  • List of Countries
  • For 7 days
  • Water Temperature
  • Satellite Maps
  • Weather Map
  • News
  • Weather Widgets
  • user-avatar
    Login

    Hourly Weather Masvingo

    Today, 21 September, Thursday

    Time Temperature Precipitation Wind Pressure Humidity
    00:00 +21°C° 0 mm 3 mps 676 mmHg 54%
    01:00 +20°C° 0 mm 3 mps 676 mmHg 57%
    02:00 +19°C° 0 mm 2 mps 676 mmHg 63%
    03:00 +18°C° 0 mm 2 mps 676 mmHg 69%
    04:00 +17°C° 0 mm 2 mps 675 mmHg 74%
    05:00 +18°C° 0 mm 1 mps 675 mmHg 80%
    06:00 +18°C° 0 mm 2 mps 676 mmHg 74%
    07:00 +19°C° 0 mm 3 mps 676 mmHg 68%
    08:00 +21°C° 0 mm 3 mps 677 mmHg 59%
    09:00 +23°C° 0 mm 4 mps 677 mmHg 52%
    10:00 +26°C° 0 mm 4 mps 677 mmHg 44%
    11:00 +27°C° 0 mm 4 mps 677 mmHg 37%
    12:00 +28°C° 0 mm 4 mps 677 mmHg 34%
    13:00 +29°C° 0 mm 4 mps 676 mmHg 31%
    14:00 +29°C° 0 mm 4 mps 676 mmHg 33%
    15:00 +28°C° 0 mm 4 mps 676 mmHg 33%
    16:00 +28°C° 0 mm 5 mps 675 mmHg 33%
    17:00 +27°C° 0 mm 5 mps 675 mmHg 33%
    18:00 +26°C° 0 mm 4 mps 675 mmHg 37%
    19:00 +23°C° 0 mm 4 mps 675 mmHg 40%
    20:00 +22°C° 0 mm 3 mps 675 mmHg 43%
    21:00 +21°C° 0 mm 3 mps 675 mmHg 46%
    22:00 +20°C° 0 mm 2 mps 675 mmHg 49%
    23:00 +20°C° 0 mm 2 mps 675 mmHg 51%

    Tomorrow, 22 September, Friday

    Time Temperature Precipitation Wind Pressure Humidity
    00:00 +20°C° 0 mm 1 mps 675 mmHg 54%
    01:00 +19°C° 0 mm 1 mps 674 mmHg 57%
    02:00 +19°C° 0 mm 1 mps 674 mmHg 59%
    03:00 +16°C° 0 mm 0 mps 674 mmHg 61%
    04:00 +16°C° 0 mm 0 mps 674 mmHg 63%
    05:00 +15°C° 0 mm 0 mps 673 mmHg 65%
    06:00 +17°C° 0 mm 0 mps 674 mmHg 59%
    07:00 +19°C° 0 mm 0 mps 675 mmHg 53%
    08:00 +23°C° 0 mm 1 mps 675 mmHg 47%
    09:00 +26°C° 0 mm 1 mps 675 mmHg 39%
    10:00 +28°C° 0 mm 2 mps 676 mmHg 31%
    11:00 +30°C° 0 mm 3 mps 676 mmHg 23%
    12:00 +31°C° 0 mm 3 mps 675 mmHg 21%
    13:00 +33°C° 0 mm 4 mps 674 mmHg 19%
    14:00 +34°C° 0 mm 4 mps 674 mmHg 16%
    15:00 +34°C° 0 mm 4 mps 674 mmHg 17%
    16:00 +33°C° 0 mm 4 mps 673 mmHg 19%
    17:00 +32°C° 0 mm 4 mps 673 mmHg 20%
    18:00 +29°C° 0 mm 4 mps 673 mmHg 23%
    19:00 +27°C° 0 mm 3 mps 673 mmHg 26%
    20:00 +26°C° 0 mm 2 mps 673 mmHg 29%
    21:00 +25°C° 0 mm 2 mps 673 mmHg 30%
    22:00 +24°C° 0 mm 2 mps 674 mmHg 32%
    23:00 +23°C° 0 mm 1 mps 674 mmHg 33%

    Day after tomorrow, 23 September, Saturday

    Time Temperature Precipitation Wind Pressure Humidity
    00:00 +22°C° 0 mm 1 mps 673 mmHg 35%
    01:00 +22°C° 0 mm 1 mps 673 mmHg 36%
    02:00 +21°C° 0 mm 1 mps 672 mmHg 37%
    03:00 +20°C° 0 mm 1 mps 672 mmHg 38%
    04:00 +20°C° 0 mm 1 mps 672 mmHg 39%
    05:00 +20°C° 0 mm 1 mps 672 mmHg 41%
    06:00 +22°C° 0 mm 1 mps 673 mmHg 36%
    07:00 +24°C° 0 mm 1 mps 674 mmHg 32%
    08:00 +26°C° 0 mm 1 mps 675 mmHg 27%
    09:00 +29°C° 0 mm 2 mps 675 mmHg 22%
    10:00 +31°C° 0 mm 3 mps 675 mmHg 17%
    11:00 +35°C° 0 mm 4 mps 676 mmHg 12%
    12:00 +35°C° 0 mm 5 mps 675 mmHg 12%
    13:00 +35°C° 0 mm 6 mps 675 mmHg 12%
    14:00 +36°C° 0 mm 7 mps 674 mmHg 12%
    15:00 +34°C° 0 mm 7 mps 674 mmHg 16%
    16:00 +33°C° 0 mm 7 mps 674 mmHg 19%
    17:00 +32°C° 0 mm 8 mps 674 mmHg 22%
    18:00 +28°C° 0 mm 8 mps 675 mmHg 37%
    19:00 +24°C° 0 mm 8 mps 675 mmHg 51%
    20:00 +21°C° 0 mm 8 mps 676 mmHg 65%
    21:00 +20°C° 0 mm 7 mps 676 mmHg 68%
    22:00 +18°C° 0 mm 7 mps 677 mmHg 71%
    23:00 +19°C° 0 mm 6 mps 677 mmHg 74%

    24 September, Sunday

    Time Temperature Precipitation Wind Pressure Humidity
    00:00 +17°C° 0 mm 6 mps 677 mmHg 75%
    01:00 +17°C° 0 mm 5 mps 676 mmHg 77%
    02:00 +16°C° 0 mm 5 mps 676 mmHg 78%
    03:00 +16°C° 0 mm 5 mps 676 mmHg 79%
    04:00 +16°C° 0 mm 5 mps 676 mmHg 79%
    05:00 +16°C° 0 mm 5 mps 676 mmHg 80%
    06:00 +16°C° 0.1 mm 5 mps 676 mmHg 79%
    07:00 +16°C° 0.1 mm 5 mps 677 mmHg 78%
    08:00 +17°C° 0.1 mm 4 mps 677 mmHg 77%
    09:00 +18°C° 0 mm 4 mps 677 mmHg 71%
    10:00 +19°C° 0 mm 4 mps 677 mmHg 65%
    11:00 +20°C° 0 mm 4 mps 677 mmHg 59%
    12:00 +22°C° 0 mm 4 mps 676 mmHg 52%
    13:00 +25°C° 0 mm 4 mps 676 mmHg 44%
    14:00 +27°C° 0 mm 4 mps 675 mmHg 36%
    15:00 +27°C° 0 mm 4 mps 675 mmHg 37%
    16:00 +27°C° 0 mm 4 mps 674 mmHg 37%
    17:00 +26°C° 0 mm 4 mps 674 mmHg 38%
    18:00 +25°C° 0 mm 3 mps 674 mmHg 43%
    19:00 +22°C° 0 mm 3 mps 674 mmHg 47%
    20:00 +21°C° 0 mm 3 mps 674 mmHg 52%
    21:00 +20°C° 0 mm 2 mps 674 mmHg 57%
    22:00 +19°C° 0 mm 2 mps 674 mmHg 62%
    23:00 +19°C° 0 mm 1 mps 674 mmHg 67%

    25 September, Monday

    Time Temperature Precipitation Wind Pressure Humidity
    00:00 +19°C° 0 mm 1 mps 673 mmHg 71%
    01:00 +18°C° 0 mm 1 mps 672 mmHg 74%
    02:00 +16°C° 0 mm 1 mps 672 mmHg 77%
    03:00 +16°C° 0 mm 1 mps 672 mmHg 78%
    04:00 +16°C° 0 mm 1 mps 672 mmHg 80%
    05:00 +16°C° 0 mm 1 mps 672 mmHg 82%
    06:00 +19°C° 0 mm 1 mps 672 mmHg 72%
    07:00 +21°C° 0 mm 1 mps 673 mmHg 63%
    08:00 +23°C° 0 mm 1 mps 674 mmHg 54%
    09:00 +26°C° 0 mm 1 mps 674 mmHg 45%
    10:00 +29°C° 0 mm 1 mps 674 mmHg 35%
    11:00 +32°C° 0 mm 1 mps 674 mmHg 25%
    12:00 +33°C° 0 mm 1 mps 673 mmHg 22%
    13:00 +34°C° 0 mm 1 mps 672 mmHg 18%
    14:00 +36°C° 0 mm 2 mps 671 mmHg 15%
    15:00 +36°C° 0 mm 2 mps 671 mmHg 14%
    16:00 +35°C° 0 mm 2 mps 670 mmHg 14%
    17:00 +35°C° 0 mm 2 mps 670 mmHg 14%
    18:00 +32°C° 0 mm 2 mps 670 mmHg 16%
    19:00 +30°C° 0 mm 2 mps 670 mmHg 19%
    20:00 +28°C° 0 mm 2 mps 670 mmHg 21%
    21:00 +27°C° 0 mm 2 mps 670 mmHg 23%
    22:00 +26°C° 0 mm 2 mps 670 mmHg 25%
    23:00 +25°C° 0 mm 2 mps 670 mmHg 27%

    26 September, Tuesday

    Time Temperature Precipitation Wind Pressure Humidity
    00:00 +25°C° 0 mm 2 mps 670 mmHg 28%
    01:00 +24°C° 0 mm 3 mps 669 mmHg 29%
    02:00 +24°C° 0 mm 3 mps 669 mmHg 30%
    03:00 +22°C° 0 mm 3 mps 669 mmHg 31%
    04:00 +22°C° 0 mm 3 mps 669 mmHg 33%
    05:00 +21°C° 0 mm 3 mps 669 mmHg 34%
    06:00 +25°C° 0 mm 3 mps 670 mmHg 29%
    07:00 +27°C° 0 mm 4 mps 670 mmHg 24%
    08:00 +29°C° 0 mm 4 mps 671 mmHg 20%
    09:00 +32°C° 0 mm 4 mps 671 mmHg 16%
    10:00 +35°C° 0 mm 4 mps 671 mmHg 13%
    11:00 +37°C° 0 mm 4 mps 671 mmHg 10%
    12:00 +38°C° 0 mm 3 mps 670 mmHg 9%
    13:00 +38°C° 0 mm 3 mps 670 mmHg 9%
    14:00 +39°C° 0 mm 2 mps 669 mmHg 8%
    15:00 +38°C° 0 mm 2 mps 669 mmHg 8%
    16:00 +37°C° 0 mm 1 mps 669 mmHg 8%
    17:00 +36°C° 0 mm 1 mps 669 mmHg 8%
    18:00 +34°C° 0 mm 1 mps 669 mmHg 10%
    19:00 +32°C° 0 mm 1 mps 669 mmHg 11%
    20:00 +30°C° 0 mm 1 mps 669 mmHg 13%
    21:00 +29°C° 0 mm 2 mps 669 mmHg 14%
    22:00 +28°C° 0 mm 2 mps 669 mmHg 15%
    23:00 +27°C° 0 mm 3 mps 669 mmHg 17%
    Show more